Station Historical Data
Daily Summary for February 1, 2018 Units:  English    Metric   Both
« Previous Day
Next Day »
Daily Weekly Monthly Yearly Custom
  High: Low: Average:
Temperature: TemperatureF °F 18.6 °F 33.7 °F
Dew Point: DewpointF °F 10.9 °F 26.2 °F
Humidity: Humidity% 64% 74%
Wind Speed: WindSpeedMPHmph 2.0mph 7.2mph
Wind Gust: WindSpeedGustMPHmph - -
Wind- - WSW
Pressure: PressureIn in 29.74 in -
Precipitation: 0.00 in    
Historical Graphs
 
 
Tabular Data for February 1, 2018
Time Temperature Dew Point Pressure Wind Wind Speed Wind Gust Humidity Rainfall Rate (Hourly)
TemperatureF °F DewpointF °F PressureIn in Calm     Humidity% HourlyPrecipIn in
00:04 39.2 °F 28.0 °F 29.78 in WSW 8.0 mph 16.0 mph 64% 0.01 in
00:09 39.2 °F 28.0 °F 29.78 in WSW 9.0 mph 18.0 mph 64% 0.01 in
00:14 39.1 °F 28.3 °F 29.78 in WSW 9.0 mph 18.0 mph 65% 0.01 in
00:19 39.0 °F 28.2 °F 29.78 in WSW 7.0 mph 14.0 mph 65% 0.00 in
00:24 38.8 °F 28.4 °F 29.78 in SW 12.0 mph 14.0 mph 66% 0.00 in
00:29 38.7 °F 28.3 °F 29.78 in SSW 6.0 mph 14.0 mph 66% 0.01 in
00:34 38.6 °F 28.2 °F 29.78 in West 6.0 mph 12.0 mph 66% 0.01 in
00:39 38.6 °F 28.6 °F 29.79 in WSW 8.0 mph 17.0 mph 67% 0.01 in
00:49 38.5 °F 28.9 °F 29.78 in South 10.0 mph 17.0 mph 68% 0.01 in
00:54 38.5 °F 28.9 °F 29.78 in SW 6.0 mph 15.0 mph 68% 0.01 in
00:59 38.5 °F 28.9 °F 29.78 in WSW 6.0 mph 13.0 mph 68% 0.02 in
01:04 38.4 °F 28.8 °F 29.78 in SW 7.0 mph 17.0 mph 68% 0.02 in
01:09 38.4 °F 29.1 °F 29.78 in West 4.0 mph 14.0 mph 69% 0.02 in
01:14 38.3 °F 29.0 °F 29.78 in WSW 8.0 mph 15.0 mph 69% 0.02 in
01:19 38.3 °F 29.0 °F 29.78 in WSW 8.0 mph 15.0 mph 69% 0.02 in
01:24 38.2 °F 29.3 °F 29.78 in WSW 7.0 mph 15.0 mph 70% 0.02 in
01:29 38.0 °F 29.1 °F 29.78 in SW 14.0 mph 16.0 mph 70% 0.01 in
01:34 38.0 °F 29.1 °F 29.78 in West 9.0 mph 17.0 mph 70% 0.01 in
01:39 37.8 °F 28.9 °F 29.78 in WSW 7.0 mph 16.0 mph 70% 0.01 in
01:44 37.7 °F 29.1 °F 29.78 in WSW 8.0 mph 16.0 mph 71% 0.02 in
01:49 37.6 °F 29.0 °F 29.78 in SW 9.0 mph 14.0 mph 71% 0.02 in
01:54 37.6 °F 29.0 °F 29.78 in WSW 8.0 mph 14.0 mph 71% 0.02 in
01:59 37.4 °F 29.2 °F 29.78 in WSW 5.0 mph 16.0 mph 72% 0.01 in
02:04 37.3 °F 29.1 °F 29.78 in West 8.0 mph 14.0 mph 72% 0.01 in
02:09 37.3 °F 29.1 °F 29.78 in WSW 5.0 mph 12.0 mph 72% 0.01 in
02:19 37.1 °F 29.2 °F 29.78 in WSW 8.0 mph 15.0 mph 73% 0.01 in
02:24 37.0 °F 29.1 °F 29.78 in WSW 6.0 mph 13.0 mph 73% 0.01 in
02:29 36.9 °F 29.1 °F 29.78 in SW 6.0 mph 13.0 mph 73% 0.01 in
02:39 36.7 °F 29.2 °F 29.77 in SW 6.0 mph 13.0 mph 74% 0.01 in
02:44 36.7 °F 29.2 °F 29.78 in WSW 4.0 mph 12.0 mph 74% 0.01 in
02:49 36.6 °F 29.4 °F 29.79 in WSW 4.0 mph 11.0 mph 75% 0.01 in
02:54 36.4 °F 29.2 °F 29.79 in WSW 6.0 mph 11.0 mph 75% 0.01 in
02:59 36.4 °F 29.2 °F 29.79 in WSW 6.0 mph 11.0 mph 75% 0.01 in
03:04 36.2 °F 29.0 °F 29.79 in WSW 6.0 mph 11.0 mph 75% 0.01 in
03:09 36.1 °F 28.9 °F 29.79 in WSW 6.0 mph 11.0 mph 75% 0.01 in
03:14 36.0 °F 28.8 °F 29.78 in SW 6.0 mph 11.0 mph 75% 0.01 in
03:24 35.9 °F 29.1 °F 29.78 in WSW 6.0 mph 13.0 mph 76% 0.01 in
03:29 35.9 °F 29.1 °F 29.78 in West 8.0 mph 11.0 mph 76% 0.01 in
03:34 36.0 °F 29.2 °F 29.78 in SW 5.0 mph 12.0 mph 76% 0.01 in
03:39 36.1 °F 28.9 °F 29.78 in WSW 8.0 mph 11.0 mph 75% 0.01 in
03:44 36.2 °F 29.0 °F 29.78 in WSW 6.0 mph 11.0 mph 75% 0.00 in
03:49 36.4 °F 29.2 °F 29.78 in WSW 7.0 mph 15.0 mph 75% 0.00 in
03:54 36.6 °F 29.4 °F 29.77 in West 6.0 mph 15.0 mph 75% 0.00 in
03:59 36.8 °F 29.6 °F 29.77 in SW 8.0 mph 11.0 mph 75% 0.00 in
04:04 36.7 °F 29.2 °F 29.77 in WSW 6.0 mph 14.0 mph 74% 0.00 in
04:09 36.8 °F 29.3 °F 29.77 in WSW 7.0 mph 15.0 mph 74% 0.00 in
04:14 36.9 °F 29.4 °F 29.77 in SW 7.0 mph 15.0 mph 74% 0.00 in
04:19 36.8 °F 29.6 °F 29.77 in SW 7.0 mph 14.0 mph 75% 0.00 in
04:24 36.6 °F 29.4 °F 29.77 in SW 8.0 mph 14.0 mph 75% 0.00 in
04:29 36.4 °F 29.6 °F 29.77 in SW 8.0 mph 12.0 mph 76% 0.00 in
04:34 36.2 °F 29.4 °F 29.77 in South 5.0 mph 11.0 mph 76% 0.00 in
04:39 36.1 °F 29.6 °F 29.77 in SW 6.0 mph 11.0 mph 77% 0.00 in
04:44 36.1 °F 29.6 °F 29.77 in SW 7.0 mph 11.0 mph 77% 0.00 in
04:49 36.1 °F 29.6 °F 29.77 in SW 7.0 mph 16.0 mph 77% 0.00 in
04:54 36.1 °F 29.6 °F 29.77 in WSW 10.0 mph 11.0 mph 77% 0.00 in
04:59 36.2 °F 29.7 °F 29.77 in SW 6.0 mph 13.0 mph 77% 0.00 in
05:04 36.2 °F 29.4 °F 29.77 in SW 7.0 mph 12.0 mph 76% 0.00 in
05:09 36.3 °F 29.5 °F 29.77 in SW 7.0 mph 17.0 mph 76% 0.00 in
05:14 36.3 °F 29.5 °F 29.77 in SW 8.0 mph 17.0 mph 76% 0.01 in
05:19 36.3 °F 29.5 °F 29.77 in SW 7.0 mph 12.0 mph 76% 0.01 in
05:24 36.2 °F 29.7 °F 29.78 in SW 7.0 mph 12.0 mph 77% 0.01 in
05:29 36.2 °F 29.7 °F 29.77 in SW 3.0 mph 12.0 mph 77% 0.01 in
05:34 36.1 °F 29.6 °F 29.77 in SW 5.0 mph 12.0 mph 77% 0.01 in
05:39 35.8 °F 29.3 °F 29.77 in WSW 4.0 mph 7.0 mph 77% 0.01 in
05:44 35.6 °F 29.1 °F 29.77 in SSW 3.0 mph 8.0 mph 77% 0.01 in
05:49 35.5 °F 29.0 °F 29.77 in SW 4.0 mph 6.0 mph 77% 0.01 in
05:54 35.5 °F 29.3 °F 29.78 in SSW 3.0 mph 8.0 mph 78% 0.01 in
05:59 35.6 °F 29.4 °F 29.77 in SW 4.0 mph 7.0 mph 78% 0.01 in
06:04 35.7 °F 29.5 °F 29.77 in SW 4.0 mph 10.0 mph 78% 0.01 in
06:09 35.9 °F 29.7 °F 29.77 in SSW 5.0 mph 8.0 mph 78% 0.01 in
06:14 36.1 °F 29.9 °F 29.77 in SSW 4.0 mph 12.0 mph 78% 0.00 in
06:19 36.4 °F 30.2 °F 29.77 in SW 3.0 mph 11.0 mph 78% 0.00 in
06:24 36.5 °F 30.3 °F 29.76 in SSW 5.0 mph 12.0 mph 78% 0.00 in
06:29 36.6 °F 30.1 °F 29.76 in SSW 5.0 mph 9.0 mph 77% 0.00 in
06:39 36.6 °F 30.1 °F 29.76 in SSW 4.0 mph 9.0 mph 77% 0.00 in
06:44 36.7 °F 30.2 °F 29.76 in SSW 4.0 mph 11.0 mph 77% 0.00 in
06:49 36.7 °F 30.2 °F 29.77 in SW 4.0 mph 7.0 mph 77% 0.00 in
06:54 36.8 °F 30.3 °F 29.77 in SSW 4.0 mph 9.0 mph 77% 0.00 in
06:59 36.9 °F 30.4 °F 29.77 in South 7.0 mph 11.0 mph 77% 0.00 in
07:04 37.0 °F 30.5 °F 29.77 in SSW 5.0 mph 11.0 mph 77% 0.00 in
07:09 37.0 °F 30.5 °F 29.76 in SSW 4.0 mph 10.0 mph 77% 0.00 in
07:14 37.1 °F 30.6 °F 29.77 in SSW 5.0 mph 10.0 mph 77% 0.00 in
07:19 37.1 °F 30.6 °F 29.77 in SSW 5.0 mph 10.0 mph 77% 0.00 in
07:24 37.0 °F 30.5 °F 29.77 in SW 3.0 mph 9.0 mph 77% 0.00 in
07:29 37.0 °F 30.5 °F 29.77 in SW 11.0 mph 13.0 mph 77% 0.00 in
07:34 37.0 °F 30.5 °F 29.76 in SSE 6.0 mph 11.0 mph 77% 0.00 in
07:39 37.0 °F 30.5 °F 29.76 in SW 5.0 mph 12.0 mph 77% 0.00 in
07:44 37.0 °F 30.5 °F 29.76 in SW 5.0 mph 9.0 mph 77% 0.00 in
07:49 37.1 °F 30.6 °F 29.76 in SW 5.0 mph 11.0 mph 77% 0.00 in
07:54 37.1 °F 30.6 °F 29.76 in SW 5.0 mph 11.0 mph 77% 0.00 in
08:04 37.3 °F 30.7 °F 29.76 in SW 8.0 mph 12.0 mph 77% 0.01 in
08:09 37.4 °F 30.8 °F 29.76 in SSW 6.0 mph 12.0 mph 77% 0.01 in
08:14 37.5 °F 30.9 °F 29.76 in SE 8.0 mph 11.0 mph 77% 0.01 in
08:19 37.7 °F 30.8 °F 29.76 in SSW 6.0 mph 12.0 mph 76% 0.01 in
08:24 37.8 °F 30.9 °F 29.76 in WSW 5.0 mph 9.0 mph 76% 0.01 in
08:29 37.9 °F 31.0 °F 29.76 in SW 6.0 mph 12.0 mph 76% 0.01 in
08:34 38.0 °F 31.1 °F 29.76 in SSW 7.0 mph 13.0 mph 76% 0.01 in
08:39 38.0 °F 31.1 °F 29.77 in SW 9.0 mph 13.0 mph 76% 0.01 in
08:44 38.1 °F 30.9 °F 29.76 in SSW 7.0 mph 14.0 mph 75% 0.01 in
08:49 38.3 °F 31.1 °F 29.77 in SSW 7.0 mph 14.0 mph 75% 0.01 in
08:54 38.3 °F 31.1 °F 29.77 in SSW 6.0 mph 13.0 mph 75% 0.01 in
08:59 38.5 °F 31.3 °F 29.77 in SSW 5.0 mph 11.0 mph 75% 0.01 in
09:04 38.7 °F 31.5 °F 29.76 in SSW 5.0 mph 10.0 mph 75% 0.00 in
09:09 38.8 °F 31.2 °F 29.77 in SW 13.0 mph 15.0 mph 74% 0.00 in
09:14 38.9 °F 31.3 °F 29.76 in SSW 6.0 mph 15.0 mph 74% 0.00 in
09:19 39.1 °F 31.5 °F 29.76 in SSW 6.0 mph 15.0 mph 74% 0.00 in
09:24 39.4 °F 31.5 °F 29.76 in SW 3.0 mph 17.0 mph 73% 0.00 in
09:29 39.7 °F 31.8 °F 29.76 in South 6.0 mph 18.0 mph 73% 0.00 in
09:34 39.7 °F 31.8 °F 29.77 in SSW 6.0 mph 10.0 mph 73% 0.00 in
09:39 39.7 °F 31.4 °F 29.77 in SW 8.0 mph 11.0 mph 72% 0.00 in
09:44 39.7 °F 31.4 °F 29.77 in SW 7.0 mph 14.0 mph 72% 0.00 in
09:49 39.7 °F 31.4 °F 29.77 in SW 7.0 mph 14.0 mph 72% 0.00 in
09:54 39.6 °F 31.7 °F 29.76 in SSW 7.0 mph 14.0 mph 73% 0.00 in
09:59 39.8 °F 31.5 °F 29.76 in SSW 7.0 mph 14.0 mph 72% 0.00 in
10:04 39.7 °F 31.4 °F 29.77 in SE 8.0 mph 15.0 mph 72% 0.00 in
10:09 39.7 °F 31.4 °F 29.77 in SW 6.0 mph 12.0 mph 72% 0.00 in
10:14 39.7 °F 31.8 °F 29.77 in SSW 3.0 mph 14.0 mph 73% 0.00 in
10:19 39.9 °F 31.6 °F 29.76 in SW 7.0 mph 14.0 mph 72% 0.00 in
10:24 39.9 °F 31.6 °F 29.76 in SW 5.0 mph 12.0 mph 72% 0.00 in
10:29 39.8 °F 31.8 °F 29.77 in SW 7.0 mph 12.0 mph 73% 0.00 in
10:34 39.9 °F 31.9 °F 29.77 in SW 4.0 mph 10.0 mph 73% 0.00 in
10:39 39.9 °F 31.9 °F 29.76 in SW 8.0 mph 16.0 mph 73% 0.00 in
10:44 40.0 °F 31.7 °F 29.76 in WSW 8.0 mph 13.0 mph 72% 0.00 in
10:49 40.0 °F 31.7 °F 29.76 in SW 7.0 mph 13.0 mph 72% 0.00 in
10:54 40.1 °F 31.8 °F 29.76 in SW 7.0 mph 16.0 mph 72% 0.00 in
10:59 40.1 °F 31.8 °F 29.76 in SW 8.0 mph 16.0 mph 72% 0.00 in
11:04 40.1 °F 31.8 °F 29.77 in West 13.0 mph 21.0 mph 72% 0.00 in
11:09 40.0 °F 31.7 °F 29.77 in WSW 10.0 mph 21.0 mph 72% 0.00 in
11:14 40.0 °F 31.7 °F 29.77 in WSW 10.0 mph 19.0 mph 72% 0.00 in
11:19 40.0 °F 31.7 °F 29.77 in WSW 8.0 mph 19.0 mph 72% 0.00 in
11:24 40.1 °F 31.8 °F 29.77 in WSW 8.0 mph 19.0 mph 72% 0.00 in
11:29 39.8 °F 31.5 °F 29.78 in WSW 10.0 mph 19.0 mph 72% 0.00 in
11:34 39.6 °F 31.3 °F 29.77 in WSW 9.0 mph 17.0 mph 72% 0.00 in
11:39 39.4 °F 31.5 °F 29.77 in West 10.0 mph 14.0 mph 73% 0.00 in
11:44 39.5 °F 31.6 °F 29.76 in WSW 4.0 mph 16.0 mph 73% 0.00 in
11:49 39.8 °F 31.8 °F 29.76 in WSW 7.0 mph 16.0 mph 73% 0.00 in
11:54 40.0 °F 32.0 °F 29.76 in WSW 7.0 mph 15.0 mph 73% 0.00 in
11:59 39.7 °F 31.8 °F 29.76 in WSW 8.0 mph 15.0 mph 73% 0.00 in
12:04 39.5 °F 31.9 °F 29.75 in WSW 8.0 mph 17.0 mph 74% 0.00 in
12:09 39.6 °F 32.0 °F 29.76 in WSW 9.0 mph 17.0 mph 74% 0.00 in
12:14 39.5 °F 31.9 °F 29.76 in SW 13.0 mph 19.0 mph 74% 0.00 in
12:19 39.6 °F 32.0 °F 29.75 in SW 14.0 mph 21.0 mph 74% 0.00 in
12:24 39.6 °F 31.7 °F 29.75 in WSW 11.0 mph 21.0 mph 73% 0.00 in
12:29 39.7 °F 32.1 °F 29.74 in SW 11.0 mph 13.0 mph 74% 0.00 in
12:34 39.9 °F 31.9 °F 29.75 in WSW 7.0 mph 20.0 mph 73% 0.00 in
12:39 40.0 °F 32.0 °F 29.75 in West 10.0 mph 21.0 mph 73% 0.00 in
12:44 39.8 °F 31.8 °F 29.75 in SW 13.0 mph 23.0 mph 73% 0.00 in
12:49 39.5 °F 31.6 °F 29.74 in WSW 13.0 mph 19.0 mph 73% 0.00 in
12:54 39.6 °F 31.7 °F 29.74 in SW 9.0 mph 22.0 mph 73% 0.00 in
12:59 39.5 °F 31.6 °F 29.74 in WSW 11.0 mph 22.0 mph 73% 0.00 in
13:04 39.3 °F 31.7 °F 29.74 in WSW 12.0 mph 24.0 mph 74% 0.00 in
13:09 39.4 °F 31.8 °F 29.74 in WSW 13.0 mph 26.0 mph 74% 0.00 in
13:14 39.3 °F 31.7 °F 29.74 in WSW 13.0 mph 26.0 mph 74% 0.00 in
13:19 39.0 °F 31.4 °F 29.74 in West 11.0 mph 27.0 mph 74% 0.00 in
13:24 38.9 °F 31.6 °F 29.75 in WSW 20.0 mph 24.0 mph 75% 0.00 in
13:29 38.8 °F 31.6 °F 29.75 in West 18.0 mph 22.0 mph 75% 0.00 in
13:34 38.5 °F 30.9 °F 29.75 in WSW 14.0 mph 26.0 mph 74% 0.00 in
13:39 38.3 °F 31.1 °F 29.74 in WSW 14.0 mph 26.0 mph 75% 0.00 in
13:44 38.3 °F 31.1 °F 29.75 in WSW 12.0 mph 26.0 mph 75% 0.00 in
13:49 38.2 °F 31.0 °F 29.75 in SW 10.0 mph 24.0 mph 75% 0.00 in
13:54 38.0 °F 30.8 °F 29.75 in WSW 16.0 mph 22.0 mph 75% 0.00 in
13:59 38.0 °F 30.8 °F 29.75 in WSW 18.0 mph 24.0 mph 75% 0.00 in
14:04 37.7 °F 30.8 °F 29.75 in WSW 13.0 mph 24.0 mph 76% 0.00 in
14:09 37.7 °F 30.8 °F 29.75 in WSW 12.0 mph 24.0 mph 76% 0.00 in
14:14 37.8 °F 31.2 °F 29.75 in WSW 11.0 mph 21.0 mph 77% 0.00 in
14:19 37.8 °F 31.2 °F 29.75 in WSW 10.0 mph 19.0 mph 77% 0.00 in
14:24 37.8 °F 31.2 °F 29.76 in WSW 13.0 mph 17.0 mph 77% 0.00 in
14:29 37.7 °F 31.1 °F 29.75 in West 7.0 mph 16.0 mph 77% 0.00 in
14:34 37.7 °F 31.1 °F 29.76 in WSW 6.0 mph 15.0 mph 77% 0.00 in
14:39 37.3 °F 30.7 °F 29.76 in WSW 9.0 mph 18.0 mph 77% 0.00 in
14:44 37.1 °F 30.6 °F 29.76 in WSW 9.0 mph 19.0 mph 77% 0.00 in
14:49 36.9 °F 30.7 °F 29.76 in WSW 9.0 mph 19.0 mph 78% 0.00 in
14:54 36.5 °F 30.3 °F 29.77 in WNW 6.0 mph 17.0 mph 78% 0.00 in
14:59 36.4 °F 30.5 °F 29.78 in SW 6.0 mph 18.0 mph 79% 0.00 in
15:04 36.2 °F 30.3 °F 29.78 in SW 8.0 mph 19.0 mph 79% 0.00 in
15:09 35.9 °F 30.0 °F 29.78 in SW 10.0 mph 19.0 mph 79% 0.00 in
15:14 35.6 °F 30.0 °F 29.78 in SW 10.0 mph 18.0 mph 80% 0.00 in
15:19 35.4 °F 29.8 °F 29.78 in WSW 9.0 mph 18.0 mph 80% 0.00 in
15:24 35.2 °F 30.0 °F 29.79 in SW 9.0 mph 17.0 mph 81% 0.00 in
15:29 35.1 °F 29.9 °F 29.79 in SW 12.0 mph 19.0 mph 81% 0.00 in
15:34 35.0 °F 29.8 °F 29.79 in SW 11.0 mph 20.0 mph 81% 0.00 in
15:39 35.0 °F 29.8 °F 29.79 in SW 10.0 mph 18.0 mph 81% 0.00 in
15:44 34.8 °F 29.6 °F 29.79 in WSW 9.0 mph 21.0 mph 81% 0.00 in
15:49 34.8 °F 29.6 °F 29.80 in SW 9.0 mph 21.0 mph 81% 0.00 in
15:54 34.6 °F 29.7 °F 29.80 in SW 10.0 mph 19.0 mph 82% 0.00 in
15:59 34.4 °F 29.5 °F 29.80 in WSW 10.0 mph 18.0 mph 82% 0.00 in
16:04 34.4 °F 29.5 °F 29.80 in SW 9.0 mph 18.0 mph 82% 0.00 in
16:09 34.4 °F 29.5 °F 29.81 in WSW 8.0 mph 14.0 mph 82% 0.00 in
16:14 34.4 °F 29.5 °F 29.80 in WSW 8.0 mph 18.0 mph 82% 0.00 in
16:19 34.3 °F 29.4 °F 29.80 in SW 6.0 mph 19.0 mph 82% 0.00 in
16:29 34.3 °F 29.4 °F 29.80 in SW 11.0 mph 17.0 mph 82% 0.00 in
16:34 34.3 °F 29.4 °F 29.81 in WSW 10.0 mph 21.0 mph 82% 0.00 in
16:39 34.3 °F 29.4 °F 29.81 in WSW 13.0 mph 20.0 mph 82% 0.00 in
16:44 34.3 °F 29.1 °F 29.82 in WSW 9.0 mph 20.0 mph 81% 0.00 in
16:49 34.3 °F 29.1 °F 29.82 in WSW 9.0 mph 19.0 mph 81% 0.00 in
16:54 34.3 °F 29.1 °F 29.82 in WSW 9.0 mph 19.0 mph 81% 0.00 in
16:59 34.2 °F 29.0 °F 29.82 in WSW 9.0 mph 18.0 mph 81% 0.00 in
17:04 34.2 °F 29.0 °F 29.82 in WSW 9.0 mph 15.0 mph 81% 0.00 in
17:09 34.2 °F 29.0 °F 29.83 in WSW 7.0 mph 20.0 mph 81% 0.00 in
17:14 34.2 °F 29.0 °F 29.83 in WSW 9.0 mph 20.0 mph 81% 0.00 in
17:19 34.3 °F 29.1 °F 29.83 in WSW 7.0 mph 15.0 mph 81% 0.00 in
17:24 34.3 °F 28.8 °F 29.84 in West 7.0 mph 14.0 mph 80% 0.00 in
17:29 33.4 °F 27.0 °F 29.85 in NW 14.0 mph 15.0 mph 77% 0.00 in
17:34 32.5 °F 25.8 °F 29.86 in NW 9.0 mph 15.0 mph 76% 0.00 in
17:39 31.7 °F 24.7 °F 29.86 in WNW 8.0 mph 15.0 mph 75% 0.00 in
17:44 31.3 °F 24.3 °F 29.87 in NW 4.0 mph 13.0 mph 75% 0.00 in
17:49 31.0 °F 24.3 °F 29.86 in NW 6.0 mph 16.0 mph 76% 0.00 in
17:54 30.5 °F 23.5 °F 29.87 in NNW 7.0 mph 16.0 mph 75% 0.00 in
17:59 29.9 °F 23.3 °F 29.88 in NNW 7.0 mph 14.0 mph 76% 0.00 in
18:04 29.7 °F 23.1 °F 29.88 in NNW 4.0 mph 11.0 mph 76% 0.00 in
18:09 29.5 °F 22.9 °F 29.89 in NNW 4.0 mph 8.0 mph 76% 0.00 in
18:14 29.4 °F 23.1 °F 29.89 in North 7.0 mph 9.0 mph 77% 0.00 in
18:19 29.1 °F 22.5 °F 29.89 in North 5.0 mph 11.0 mph 76% 0.00 in
18:24 28.8 °F 22.2 °F 29.88 in NNW 5.0 mph 12.0 mph 76% 0.00 in
18:29 28.7 °F 22.1 °F 29.89 in NW 7.0 mph 12.0 mph 76% 0.00 in
18:34 28.5 °F 21.9 °F 29.90 in NNW 8.0 mph 11.0 mph 76% 0.00 in
18:39 28.2 °F 21.3 °F 29.91 in NNW 3.0 mph 12.0 mph 75% 0.00 in
18:44 28.0 °F 20.8 °F 29.91 in North 7.0 mph 9.0 mph 74% 0.00 in
18:49 27.8 °F 19.9 °F 29.92 in NNW 5.0 mph 16.0 mph 72% 0.00 in
18:54 27.5 °F 19.7 °F 29.92 in NNW 6.0 mph 16.0 mph 72% 0.00 in
18:59 27.4 °F 19.6 °F 29.91 in NW 5.0 mph 12.0 mph 72% 0.00 in
19:04 27.1 °F 19.3 °F 29.91 in NW 5.0 mph 14.0 mph 72% 0.00 in
19:09 26.9 °F 19.1 °F 29.91 in NW 4.0 mph 13.0 mph 72% 0.00 in
19:14 26.7 °F 18.9 °F 29.91 in WNW 9.0 mph 11.0 mph 72% 0.00 in
19:19 26.6 °F 18.5 °F 29.93 in WSW 3.0 mph 9.0 mph 71% 0.00 in
19:24 26.6 °F 18.1 °F 29.93 in NW 4.0 mph 12.0 mph 70% 0.00 in
19:29 26.7 °F 18.2 °F 29.94 in WNW 5.0 mph 12.0 mph 70% 0.00 in
19:34 26.7 °F 18.2 °F 29.94 in NNW 6.0 mph 11.0 mph 70% 0.00 in
19:39 26.7 °F 17.9 °F 29.95 in NNW 4.0 mph 12.0 mph 69% 0.00 in
19:44 26.7 °F 17.9 °F 29.96 in West 5.0 mph 8.0 mph 69% 0.00 in
19:49 26.7 °F 17.9 °F 29.96 in NNW 7.0 mph 12.0 mph 69% 0.00 in
19:54 26.7 °F 17.9 °F 29.96 in WNW 4.0 mph 9.0 mph 69% 0.00 in
19:59 26.6 °F 17.8 °F 29.96 in NW 4.0 mph 11.0 mph 69% 0.00 in
20:04 26.4 °F 17.6 °F 29.96 in NW 5.0 mph 13.0 mph 69% 0.00 in
20:09 26.3 °F 17.5 °F 29.96 in NNW 5.0 mph 13.0 mph 69% 0.00 in
20:14 26.0 °F 17.2 °F 29.97 in NNW 3.0 mph 11.0 mph 69% 0.00 in
20:19 25.8 °F 17.0 °F 29.98 in NW 6.0 mph 11.0 mph 69% 0.00 in
20:24 25.6 °F 16.8 °F 29.98 in NW 5.0 mph 12.0 mph 69% 0.00 in
20:29 25.4 °F 16.6 °F 29.98 in NW 4.0 mph 13.0 mph 69% 0.00 in
20:34 25.3 °F 16.5 °F 29.99 in NW 8.0 mph 14.0 mph 69% 0.00 in
20:39 24.9 °F 16.5 °F 29.99 in NW 4.0 mph 11.0 mph 70% 0.00 in
20:44 24.7 °F 16.3 °F 30.00 in NW 5.0 mph 14.0 mph 70% 0.00 in
20:49 24.5 °F 16.4 °F 30.00 in WNW 7.0 mph 11.0 mph 71% 0.00 in
20:54 24.3 °F 16.2 °F 30.00 in NW 6.0 mph 15.0 mph 71% 0.00 in
20:59 24.0 °F 16.0 °F 30.00 in NW 8.0 mph 12.0 mph 71% 0.00 in
21:04 23.7 °F 15.0 °F 30.00 in NW 7.0 mph 16.0 mph 69% 0.00 in
21:09 23.3 °F 14.3 °F 30.00 in NW 7.0 mph 16.0 mph 68% 0.00 in
21:14 23.1 °F 13.8 °F 30.00 in NW 7.0 mph 15.0 mph 67% 0.00 in
21:19 22.9 °F 13.6 °F 30.00 in NW 7.0 mph 14.0 mph 67% 0.00 in
21:24 22.7 °F 13.7 °F 30.01 in WNW 6.0 mph 14.0 mph 68% 0.00 in
21:29 22.6 °F 13.6 °F 30.01 in NNW 2.0 mph 12.0 mph 68% 0.00 in
21:34 22.5 °F 13.5 °F 30.02 in NW 5.0 mph 12.0 mph 68% 0.00 in
21:39 22.2 °F 13.2 °F 30.02 in NNW 5.0 mph 13.0 mph 68% 0.00 in
21:44 21.9 °F 13.0 °F 30.02 in NW 4.0 mph 10.0 mph 68% 0.00 in
21:49 21.8 °F 13.2 °F 30.03 in WNW 3.0 mph 9.0 mph 69% 0.00 in
21:54 21.6 °F 12.7 °F 30.02 in West 4.0 mph 15.0 mph 68% 0.00 in
21:59 21.4 °F 12.1 °F 30.03 in NW 4.0 mph 12.0 mph 67% 0.00 in
22:04 21.2 °F 11.6 °F 30.03 in WNW 7.0 mph 12.0 mph 66% 0.00 in
22:09 21.1 °F 11.5 °F 30.04 in WNW 6.0 mph 12.0 mph 66% 0.00 in
22:14 21.0 °F 11.4 °F 30.04 in WNW 5.0 mph 12.0 mph 66% 0.00 in
22:19 20.9 °F 11.7 °F 30.05 in WNW 4.0 mph 10.0 mph 67% 0.00 in
22:24 20.8 °F 11.6 °F 30.05 in WNW 5.0 mph 10.0 mph 67% 0.00 in
22:29 20.6 °F 11.0 °F 30.05 in WNW 3.0 mph 12.0 mph 66% 0.00 in
22:34 20.5 °F 10.9 °F 30.05 in WNW 3.0 mph 10.0 mph 66% 0.00 in
22:39 20.5 °F 11.3 °F 30.05 in NW 4.0 mph 10.0 mph 67% 0.00 in
22:44 20.3 °F 11.4 °F 30.06 in NW 5.0 mph 13.0 mph 68% 0.00 in
22:49 20.2 °F 11.7 °F 30.06 in NW 10.0 mph 12.0 mph 69% 0.00 in
22:54 20.0 °F 11.5 °F 30.06 in WNW 12.0 mph 13.0 mph 69% 0.00 in
22:59 19.9 °F 11.4 °F 30.06 in NW 8.0 mph 13.0 mph 69% 0.00 in
23:04 19.8 °F 11.3 °F 30.06 in WNW 8.0 mph 11.0 mph 69% 0.00 in
23:09 19.6 °F 11.1 °F 30.06 in West 5.0 mph 10.0 mph 69% 0.00 in
23:14 19.5 °F 11.0 °F 30.06 in West 6.0 mph 10.0 mph 69% 0.00 in
23:19 19.5 °F 11.3 °F 30.06 in West 5.0 mph 10.0 mph 70% 0.00 in
23:24 19.4 °F 11.5 °F 30.06 in WNW 3.0 mph 10.0 mph 71% 0.00 in
23:29 19.4 °F 11.8 °F 30.06 in West 3.0 mph 9.0 mph 72% 0.00 in
23:34 19.3 °F 11.7 °F 30.07 in West 4.0 mph 11.0 mph 72% 0.00 in
23:39 19.2 °F 11.6 °F 30.07 in WNW 6.0 mph 12.0 mph 72% 0.00 in
23:44 19.1 °F 11.9 °F 30.06 in WNW 6.0 mph 12.0 mph 73% 0.00 in
23:49 18.9 °F 11.7 °F 30.06 in West 6.0 mph 14.0 mph 73% 0.00 in
23:54 18.7 °F 11.5 °F 30.06 in WNW 7.0 mph 14.0 mph 73% 0.00 in
23:59 18.6 °F 11.7 °F 30.06 in WNW 7.0 mph 13.0 mph 74% 0.00 in
Buffalo, New York, USA
Compliments of Weather Underground - 2.5 mb